Temp
78 87 90 85 72 73 69 69 77 71 72 78 81 78 75 76 73 65 72 75 76 75 77 75 72 72 73 73 73 73 73 74 75 75 75 74 74 74 74 74 74 74 76 77 77 77 77 76 76
88 86 86 83 69 67 71 75 70 75 76 78 76 73 73 73 74 69 71 73 76 75 76 74 70 71 71 72 72 71 72 72 73 73 73 73 72 72 72 72 72 73 74 75 76 76 75 74 75
85 87 80 75 72 68 70 74 76 77 75 75 74 75 76 74 74 74 74 74 75 73 75 71 69 70 70 70 70 70 70 71 70 71 71 70 70 70 70 70 70 71 71 72 73 73 72 72 73
85 84 82 70 70 75 74 77 79 73 73 75 76 72 73 75 75 77 74 75 74 72 73 68 68 69 69 69 69 69 69 69 69 70 69 69 68 68 69 69 69 69 70 71 71 71 71 70 71
84 82 72 69 71 75 77 78 78 73 74 75 74 73 72 71 75 74 73 74 72 71 71 69 66 67 67 68 68 68 68 68 68 68 67 67 67 67 67 67 68 68 68 69 70 69 68 68 69
78 80 69 68 72 74 76 78 77 76 77 74 71 73 74 74 71 73 74 74 74 70 67 68 63 64 65 65 66 66 66 66 65 65 65 65 64 65 65 65 66 66 67 67 68 67 67 67 67
73 74 70 70 71 71 75 79 75 76 77 74 76 71 72 69 73 73 74 74 73 70 67 67 67 63 61 62 62 63 64 63 63 63 62 62 62 62 62 63 63 64 64 65 65 65 65 65 65
77 76 70 72 71 70 75 76 77 77 76 75 77 71 73 73 73 72 73 71 71 69 69 67 66 67 66 63 59 60 61 61 60 59 59 60 63 63 61 60 60 61 61 62 63 63 63 63 63
78 70 68 70 69 73 75 72 75 74 75 72 74 74 72 76 71 69 67 68 68 67 68 67 66 66 66 65 60 58 58 59 60 61 59 63 65 64 64 58 59 60 60 61 62 62 62 63 65
74 69 72 76 77 74 75 73 77 70 71 72 72 75 69 71 67 65 64 65 65 65 65 67 66 66 66 67 64 64 63 64 63 63 63 63 63 61 62 60 59 60 59 62 62 63 63 64 65
74 70 75 76 76 75 74 73 76 71 70 77 75 77 69 69 66 66 66 68 67 68 67 66 66 66 65 65 64 64 64 63 63 61 61 61 62 61 61 61 60 60 59 61 61 61 62 60 61
68 75 74 74 72 70 70 74 71 72 75 77 79 82 73 67 66 66 67 69 69 68 66 66 66 64 64 63 64 64 63 63 63 60 59 60 60 58 59 59 59 58 59 58 58 58 58 59 60
68 74 73 74 70 69 72 67 70 73 79 81 78 71 73 69 69 70 70 70 70 67 66 65 65 64 63 62 64 63 62 62 62 61 58 59 59 57 58 57 58 57 58 57 56 56 56 56 58
72 71 72 74 71 70 65 69 67 74 77 78 77 72 72 72 71 71 69 69 68 66 65 64 63 64 64 63 63 62 62 61 61 60 58 57 57 56 56 56 56 56 56 55 54 55 55 55 57
69 64 73 73 70 67 67 62 65 74 74 72 72 72 72 72 72 71 71 68 68 66 65 63 63 63 62 62 61 61 61 61 60 59 56 55 55 55 54 55 54 55 53 53 54 54 55 55 56
65 66 62 74 68 66 65 62 76 81 72 69 73 75 72 72 72 72 72 70 69 66 64 63 63 61 61 61 60 61 60 60 59 58 58 55 54 54 53 52 52 53 52 52 52 52 51 52 53
67 60 65 69 68 66 62 64 75 75 72 71 74 76 76 73 71 72 72 70 69 66 64 61 60 59 59 60 60 60 59 58 58 58 56 55 53 52 51 51 51 51 50 50 50 50 49 49 50
64 65 67 64 68 63 62 60 69 73 73 72 74 76 76 77 74 71 71 70 68 66 64 61 59 59 59 58 58 58 56 56 57 56 55 53 53 51 50 50 50 49 48 48 49 47 48 48 49
66 63 62 68 71 62 61 62 67 71 72 71 73 74 76 76 78 72 70 69 66 64 62 61 58 58 58 56 54 54 53 54 54 55 53 52 52 50 49 48 48 48 47 47 46 46 45 46 48
65 59 60 67 69 57 59 58 65 68 68 70 70 71 74 77 73 69 67 64 63 61 60 59 58 58 57 57 56 57 56 55 55 54 52 52 50 49 47 47 46 46 45 45 45 45 42 44 47
60 58 60 61 65 59 55 54 60 67 68 68 68 70 73 73 72 67 64 61 61 59 58 58 58 58 57 57 55 52 51 51 50 50 50 50 49 47 46 46 45 44 44 43 44 44 42 39 43
54 65 62 57 54 50 57 46 59 64 66 66 66 70 75 69 69 67 63 60 58 58 58 58 58 58 57 55 50 48 49 50 53 53 51 49 48 47 46 45 44 43 43 42 43 44 41 40 38
58 56 56 55 52 51 53 48 56 55 57 60 66 70 75 69 66 64 61 59 60 57 56 56 57 56 55 52 50 48 48 51 53 50 47 46 47 46 45 44 43 42 42 42 41 41 40 40 38
55 54 52 51 50 41 53 52 53 60 61 65 69 72 74 68 65 64 63 61 59 57 54 54 54 53 53 51 49 48 48 48 46 46 44 45 46 46 45 43 42 41 41 40 41 40 39 38 38
53 52 46 44 40 40 60 51 57 65 66 67 69 71 71 65 64 63 60 57 56 54 52 52 52 51 51 49 48 48 48 47 46 45 45 44 44 43 44 43 41 40 40 39 38 38 37 37 36
49 54 46 36 40 45 44 44 56 67 70 69 69 67 66 64 63 61 60 57 55 53 51 51 49 50 49 48 47 47 47 46 46 45 44 43 42 42 42 40 39 38 38 37 36 36 36 36 35
51 44 56 44 37 37 49 58 66 61 63 63 61 63 63 62 61 60 60 58 56 52 50 50 50 49 49 47 46 46 45 44 43 43 42 41 41 40 39 37 36 36 35 35 34 34 33 34 34
51 55 44 45 33 34 46 50 53 55 57 60 58 60 64 65 63 62 60 57 56 54 51 50 50 48 48 46 45 44 43 42 42 41 39 38 39 38 36 35 34 33 33 33 32 32 32 31 32
44 45 46 47 47 39 37 47 62 62 61 64 62 63 66 66 64 62 60 58 56 54 52 50 49 48 47 45 44 42 41 40 40 38 37 37 36 35 33 32 31 30 30 30 30 29 29 28 28
55 53 52 42 40 45 44 45 63 61 62 63 63 64 68 67 67 66 62 58 55 53 52 51 48 47 46 44 42 40 40 38 37 36 36 35 33 33 31 30 29 28 28 28 27 26 26 25 24
MSLP
1013.74 1013.20 1012.62 1011.97 1011.04 1009.36 1008.09 1008.66 1009.02 1009.68 1010.30 1010.80 1010.70 1011.15 1011.64 1012.03 1012.81 1015.09 1016.86 1017.19 1017.32 1017.68 1017.79 1018.14 1018.36 1018.19 1018.08 1018.07 1018.05 1017.90 1017.84 1017.81 1017.76 1017.77 1017.84 1017.87 1017.85 1017.82 1017.77 1017.78 1017.71 1017.63 1017.37 1017.18 1017.08 1017.01 1016.92 1016.92 1016.96
1013.04 1012.94 1012.31 1010.76 1009.73 1007.70 1007.07 1008.32 1009.13 1009.72 1010.70 1011.52 1012.04 1012.37 1012.41 1012.35 1013.97 1015.60 1016.62 1017.39 1017.47 1017.80 1017.87 1018.41 1018.66 1018.55 1018.48 1018.50 1018.39 1018.43 1018.36 1018.27 1018.20 1018.12 1018.21 1018.27 1018.35 1018.34 1018.32 1018.17 1018.15 1018.06 1017.81 1017.63 1017.47 1017.30 1017.22 1017.14 1017.05
1013.37 1012.83 1011.24 1009.75 1008.49 1007.29 1007.20 1008.43 1008.89 1010.16 1011.47 1011.86 1012.18 1013.04 1012.73 1013.01 1014.46 1015.38 1016.68 1017.36 1017.54 1018.00 1018.17 1018.78 1018.87 1018.86 1018.86 1018.78 1018.78 1018.81 1018.81 1018.68 1018.71 1018.60 1018.62 1018.66 1018.80 1018.69 1018.61 1018.54 1018.60 1018.49 1018.28 1017.98 1017.85 1017.72 1017.71 1017.59 1017.36
1012.81 1012.08 1011.10 1009.49 1007.71 1007.48 1008.01 1008.41 1009.12 1010.73 1011.85 1012.26 1012.30 1012.55 1013.84 1014.65 1014.97 1015.69 1017.02 1017.33 1017.60 1018.14 1018.40 1019.09 1019.05 1019.11 1019.15 1019.09 1019.12 1019.15 1019.12 1019.04 1019.06 1018.95 1019.02 1019.06 1019.08 1018.96 1018.87 1018.84 1018.80 1018.67 1018.49 1018.39 1018.23 1018.04 1017.95 1017.90 1017.65
1012.84 1011.07 1009.56 1008.57 1007.71 1007.97 1008.66 1009.01 1009.74 1010.52 1011.18 1011.80 1012.70 1012.45 1013.61 1015.20 1015.86 1016.58 1017.14 1017.42 1017.79 1018.22 1018.57 1018.94 1019.21 1019.33 1019.38 1019.37 1019.39 1019.41 1019.36 1019.32 1019.36 1019.32 1019.44 1019.43 1019.43 1019.37 1019.33 1019.22 1019.07 1018.98 1018.79 1018.63 1018.41 1018.35 1018.37 1018.27 1018.00
1011.55 1010.64 1008.98 1007.73 1007.38 1008.26 1008.83 1009.42 1009.96 1010.33 1010.86 1011.92 1012.62 1012.71 1013.31 1014.86 1015.92 1016.53 1017.05 1017.36 1017.79 1018.40 1018.81 1019.06 1019.64 1019.66 1019.65 1019.68 1019.71 1019.69 1019.67 1019.76 1019.81 1019.82 1019.82 1019.84 1019.88 1019.82 1019.79 1019.72 1019.52 1019.19 1019.10 1018.97 1018.71 1018.68 1018.53 1018.31 1018.09
1011.45 1010.14 1008.72 1008.15 1007.87 1008.25 1008.72 1009.61 1009.88 1010.12 1010.52 1011.39 1012.10 1012.39 1013.62 1014.99 1015.71 1016.48 1016.99 1017.51 1017.89 1018.45 1018.79 1019.04 1019.37 1019.88 1020.07 1020.14 1020.11 1020.07 1020.02 1020.08 1020.14 1020.22 1020.32 1020.28 1020.28 1020.20 1020.12 1019.91 1019.84 1019.68 1019.60 1019.44 1019.15 1018.97 1018.73 1018.44 1018.22
1011.56 1010.40 1008.93 1008.37 1007.92 1008.25 1009.24 1009.89 1010.27 1010.26 1010.50 1011.74 1012.37 1012.01 1012.48 1013.87 1015.47 1016.44 1016.94 1017.47 1017.86 1018.39 1018.76 1019.13 1019.52 1019.60 1019.78 1020.24 1020.51 1020.39 1020.35 1020.45 1020.55 1020.68 1020.74 1020.53 1020.18 1020.15 1020.26 1020.33 1020.31 1020.09 1020.08 1019.92 1019.59 1019.32 1019.11 1018.77 1018.42
1011.85 1010.34 1008.65 1008.37 1008.68 1008.54 1009.87 1010.19 1010.87 1011.34 1011.07 1011.79 1012.21 1012.36 1013.38 1013.90 1015.54 1016.33 1016.86 1017.28 1017.68 1018.19 1018.50 1018.92 1019.30 1019.50 1019.78 1020.05 1020.54 1020.62 1020.66 1020.61 1020.60 1020.53 1020.57 1020.23 1020.11 1020.23 1020.18 1020.46 1020.49 1020.29 1020.32 1019.97 1019.64 1019.44 1019.29 1018.80 1018.16
1011.26 1009.99 1008.66 1008.89 1008.97 1009.18 1009.67 1010.28 1010.24 1011.24 1010.94 1010.93 1011.57 1012.39 1013.94 1014.46 1015.34 1015.71 1016.07 1016.47 1017.07 1017.59 1018.20 1018.69 1019.14 1019.43 1019.70 1019.80 1020.14 1020.20 1020.36 1020.34 1020.49 1020.51 1020.44 1020.39 1020.38 1020.60 1020.37 1020.42 1020.37 1020.28 1020.13 1019.72 1019.63 1019.40 1019.16 1018.78 1018.51
1010.70 1009.73 1009.41 1009.26 1009.65 1009.99 1009.95 1010.08 1010.29 1010.37 1009.79 1009.61 1010.03 1010.96 1012.95 1013.99 1014.77 1015.12 1015.37 1015.63 1016.15 1016.87 1017.74 1018.27 1018.65 1019.01 1019.26 1019.56 1019.90 1020.02 1020.18 1020.31 1020.48 1020.62 1020.59 1020.65 1020.50 1020.46 1020.40 1020.38 1020.38 1020.32 1020.20 1020.01 1019.82 1019.54 1019.37 1019.28 1018.99
1010.73 1009.74 1009.80 1009.75 1010.36 1010.65 1010.38 1010.08 1009.79 1009.69 1008.61 1009.40 1009.72 1009.97 1011.49 1012.90 1013.64 1014.09 1014.45 1014.89 1015.48 1016.23 1017.10 1017.88 1018.38 1018.83 1019.12 1019.49 1019.70 1019.91 1020.11 1020.38 1020.43 1020.80 1021.02 1020.71 1020.55 1020.68 1020.63 1020.66 1020.69 1020.64 1020.53 1020.54 1020.38 1019.98 1019.77 1019.38 1018.98
1010.77 1009.89 1010.01 1010.10 1010.58 1010.75 1010.68 1010.28 1009.83 1008.66 1008.55 1009.02 1009.63 1010.58 1010.92 1011.81 1012.47 1013.09 1013.60 1014.29 1014.96 1015.82 1016.78 1017.55 1018.02 1018.54 1019.04 1019.32 1019.49 1019.74 1020.05 1020.31 1020.56 1020.78 1021.12 1020.85 1020.76 1020.97 1021.06 1021.16 1021.16 1021.13 1021.04 1020.89 1020.62 1020.23 1019.91 1019.65 1019.08
1010.51 1010.37 1009.95 1009.82 1010.12 1010.38 1010.52 1009.93 1009.96 1007.94 1008.16 1008.24 1008.73 1009.60 1010.25 1010.63 1011.15 1012.03 1012.73 1013.36 1014.21 1015.38 1016.29 1017.14 1017.67 1018.11 1018.60 1018.97 1019.36 1019.68 1019.95 1020.39 1020.53 1020.89 1021.19 1021.33 1021.21 1021.35 1021.33 1021.34 1021.38 1021.31 1021.36 1021.38 1021.24 1020.86 1020.34 1019.83 1019.40
1010.87 1010.33 1009.23 1008.93 1009.58 1010.06 1010.31 1009.57 1008.19 1007.58 1008.05 1007.99 1008.29 1008.75 1009.15 1009.53 1010.26 1010.51 1011.35 1012.47 1013.50 1014.69 1015.80 1016.70 1017.39 1017.93 1018.40 1018.77 1019.29 1019.57 1019.91 1020.22 1020.38 1020.70 1021.22 1021.45 1021.41 1021.41 1021.47 1021.37 1021.42 1021.51 1021.79 1021.59 1021.11 1020.60 1020.19 1019.61 1019.25
1010.57 1009.91 1008.52 1007.45 1008.98 1009.74 1010.10 1007.40 1006.57 1006.31 1007.30 1007.39 1007.37 1007.45 1008.00 1008.45 1008.99 1009.62 1010.33 1011.52 1012.73 1014.06 1015.06 1016.23 1016.99 1017.54 1018.02 1018.45 1019.01 1019.30 1019.72 1019.99 1020.18 1020.59 1020.88 1021.20 1021.31 1021.45 1021.55 1021.66 1021.73 1021.94 1021.96 1021.67 1021.37 1020.94 1020.40 1019.96 1019.24
1009.10 1008.07 1007.33 1007.13 1008.33 1009.02 1009.33 1006.93 1005.91 1006.40 1006.63 1006.23 1006.18 1006.13 1006.30 1006.95 1007.99 1008.94 1009.75 1010.72 1011.98 1013.28 1014.51 1015.72 1016.64 1017.29 1017.78 1018.29 1018.84 1019.18 1019.57 1019.92 1020.13 1020.58 1020.84 1021.10 1021.37 1021.59 1021.84 1021.87 1021.78 1021.78 1021.75 1021.53 1021.06 1020.62 1020.42 1019.82 1019.00
1007.14 1006.87 1006.36 1006.42 1007.40 1008.41 1008.11 1006.89 1006.04 1005.79 1005.79 1005.12 1004.83 1004.72 1004.90 1004.99 1006.05 1007.98 1009.23 1010.30 1011.60 1012.82 1013.98 1015.19 1016.14 1016.78 1017.41 1018.05 1018.49 1018.94 1019.44 1019.72 1020.07 1020.44 1020.72 1021.02 1021.30 1021.75 1021.93 1021.95 1021.94 1021.91 1021.65 1021.37 1021.07 1021.08 1020.74 1020.13 1019.24
1007.66 1007.20 1006.50 1005.91 1006.70 1007.74 1007.23 1006.57 1005.83 1005.22 1004.73 1004.24 1003.69 1003.29 1003.38 1003.76 1004.76 1006.96 1008.39 1009.76 1011.21 1012.48 1013.62 1014.59 1015.58 1016.26 1017.00 1017.65 1018.19 1018.65 1018.93 1019.32 1019.65 1020.00 1020.51 1020.72 1021.02 1021.34 1021.41 1021.55 1021.61 1021.59 1021.49 1021.41 1021.42 1021.22 1020.94 1020.34 1019.80
1007.63 1007.54 1006.30 1006.14 1006.40 1008.14 1007.18 1006.01 1005.55 1004.96 1004.00 1003.55 1003.08 1002.33 1002.62 1002.96 1004.36 1006.38 1007.86 1009.44 1010.86 1012.16 1013.23 1014.07 1015.00 1015.76 1016.48 1017.02 1017.56 1017.85 1018.31 1018.87 1019.16 1019.55 1019.86 1020.24 1020.64 1020.82 1021.13 1021.45 1021.78 1021.68 1021.57 1021.44 1021.44 1021.18 1021.05 1020.54 1020.12
1008.01 1007.71 1006.81 1006.74 1006.89 1007.75 1007.40 1005.08 1004.49 1003.57 1003.57 1003.10 1002.12 1001.77 1002.25 1002.79 1003.79 1005.58 1007.36 1009.02 1010.51 1011.56 1012.47 1013.40 1014.21 1014.95 1015.78 1016.50 1017.32 1018.16 1018.71 1019.06 1019.18 1019.27 1019.45 1019.86 1020.30 1020.79 1021.19 1021.39 1021.51 1021.53 1021.66 1021.43 1021.16 1021.02 1020.87 1020.54 1020.34
1008.24 1007.61 1007.58 1007.71 1008.13 1006.73 1007.19 1002.82 1002.93 1002.70 1002.29 1002.39 1001.41 1000.72 1001.26 1002.24 1003.46 1005.07 1006.73 1008.34 1009.60 1010.87 1012.01 1012.83 1013.57 1014.25 1015.11 1016.03 1016.91 1017.44 1017.74 1017.82 1017.84 1018.08 1018.83 1019.43 1020.10 1020.60 1020.77 1021.01 1021.08 1021.15 1021.16 1021.13 1020.96 1020.70 1020.68 1020.51 1020.03
1008.69 1008.80 1008.56 1008.41 1008.04 1007.03 1006.44 1004.45 1001.40 1001.87 1001.46 1001.26 1000.61 1000.00 1000.41 1001.58 1003.10 1004.28 1005.92 1007.51 1008.92 1010.21 1011.05 1012.08 1012.96 1013.78 1014.60 1015.34 1015.95 1016.42 1016.75 1017.04 1017.42 1018.24 1018.85 1019.37 1019.87 1020.31 1020.62 1020.62 1020.67 1020.88 1020.95 1020.74 1020.71 1020.50 1020.26 1020.16 1019.93
1009.64 1009.57 1009.36 1009.12 1008.43 1005.44 1004.55 1003.76 1000.22 1000.02 1000.23 1000.13 999.92 999.84 1000.19 1001.37 1003.01 1004.50 1005.80 1007.19 1008.33 1009.59 1010.63 1011.37 1012.16 1013.01 1013.94 1014.80 1015.49 1015.83 1016.23 1016.64 1017.20 1017.77 1018.27 1018.86 1019.29 1019.68 1020.06 1020.42 1020.48 1020.58 1020.71 1020.63 1020.39 1020.34 1020.11 1019.92 1019.70
1010.03 1009.54 1008.32 1007.67 1007.39 1003.24 1002.86 1001.46 999.24 999.33 999.56 999.56 999.30 999.23 1000.17 1001.60 1002.68 1003.95 1005.40 1006.48 1007.54 1008.51 1009.58 1010.75 1011.19 1011.84 1012.87 1013.84 1014.46 1014.98 1015.50 1016.09 1016.74 1017.36 1017.88 1018.32 1018.69 1019.13 1019.45 1019.79 1019.99 1020.35 1020.45 1020.45 1020.36 1020.17 1019.70 1019.43 1019.18
1009.00 1008.55 1007.67 1006.39 1005.57 1002.26 1002.65 999.35 997.88 998.00 998.32 998.72 998.85 999.49 1000.44 1001.57 1002.46 1003.38 1004.30 1005.64 1006.67 1007.88 1009.10 1010.16 1010.50 1010.93 1012.00 1013.11 1013.89 1014.54 1015.02 1015.55 1016.18 1016.96 1017.66 1018.15 1018.54 1018.90 1019.27 1019.56 1019.78 1020.09 1020.05 1019.89 1019.65 1019.57 1019.44 1019.21 1019.04
1008.29 1008.44 1007.41 1006.95 1005.46 1004.48 999.66 997.70 996.80 997.65 997.96 998.15 999.15 999.92 1000.23 1001.26 1002.03 1002.73 1003.70 1004.65 1005.68 1006.82 1007.83 1008.79 1009.84 1010.45 1011.01 1011.89 1012.88 1013.61 1014.45 1015.13 1015.80 1016.58 1017.36 1017.97 1018.42 1018.76 1019.12 1019.46 1019.62 1019.71 1019.63 1019.66 1019.60 1019.31 1019.15 1019.13 1018.78
1007.95 1007.38 1007.43 1007.27 1005.84 1003.37 997.83 997.53 996.37 997.35 997.24 998.03 998.86 999.31 999.56 1000.64 1001.46 1002.27 1003.12 1003.93 1004.80 1005.71 1006.98 1007.95 1008.68 1009.44 1010.23 1011.19 1011.95 1012.78 1013.61 1014.67 1015.51 1016.11 1016.95 1017.57 1018.16 1018.62 1019.08 1019.42 1019.31 1019.14 1019.20 1019.51 1019.30 1018.87 1018.61 1018.24 1017.89
1007.61 1006.81 1006.57 1006.20 1004.51 1002.70 1000.50 995.43 995.65 996.09 996.93 997.55 998.30 998.71 998.97 999.46 1000.36 1001.32 1002.36 1003.30 1004.15 1004.92 1005.75 1006.52 1007.52 1008.48 1009.16 1010.36 1011.22 1012.27 1013.22 1014.11 1015.15 1015.79 1016.44 1017.09 1017.69 1018.26 1018.58 1018.86 1019.16 1019.30 1019.12 1019.06 1018.84 1018.40 1018.10 1017.91 1017.68
1004.60 1004.47 1004.82 1004.01 1002.78 1002.59 1000.95 994.49 994.72 995.80 996.85 997.02 997.56 998.12 998.38 998.76 999.28 999.97 1000.95 1002.01 1003.03 1003.78 1004.77 1005.59 1006.53 1007.45 1008.18 1009.38 1010.65 1011.60 1012.77 1013.81 1014.82 1015.51 1015.99 1016.60 1017.15 1017.64 1018.31 1018.70 1019.06 1019.02 1018.64 1018.67 1018.60 1018.20 1018.01 1017.69 1017.22
Wind_Speed
7 7 4 4 7 6 4 4 1 6 5 4 3 5 5 4 2 2 6 5 7 7 5 10 10 11 11 11 11 13 14 14 13 12 12 13 11 12 12 12 13 13 11 11 11 11 11 11 9
5 4 5 4 7 8 4 6 7 7 7 7 4 2 4 4 5 8 9 6 6 7 7 9 8 11 11 11 12 13 13 12 10 11 12 13 13 14 14 13 14 13 13 13 13 13 14 13 12
6 6 5 4 5 7 6 5 5 8 8 8 6 4 3 1 4 11 9 9 9 7 7 8 8 10 10 11 12 12 12 12 13 12 12 14 13 13 13 14 13 13 13 13 13 13 14 15 15
4 5 5 7 10 4 4 3 5 9 5 3 2 5 3 6 6 7 11 9 9 8 7 8 8 9 9 10 11 11 12 12 12 11 13 12 12 12 13 12 12 12 13 13 13 13 12 13 13
5 5 7 7 8 3 1 1 6 9 7 7 6 1 1 6 6 12 11 9 9 9 8 8 8 7 8 9 9 10 11 12 12 11 11 11 12 12 12 13 13 14 14 15 14 14 14 15 15
6 4 7 8 3 0 2 4 7 9 7 6 6 9 2 10 13 13 12 10 9 9 7 7 7 8 8 8 8 9 10 10 11 11 11 11 11 12 12 13 13 14 14 14 13 14 14 14 15
8 6 10 8 8 5 5 6 11 9 11 10 1 6 4 11 13 12 11 9 8 8 8 7 7 8 8 8 8 8 9 9 10 11 10 10 11 11 12 12 14 14 15 15 14 14 15 15 14
5 4 7 4 5 6 4 7 3 11 10 4 5 6 8 13 16 13 11 10 9 8 7 6 6 6 6 7 8 8 9 9 9 9 6 2 6 7 9 12 13 13 14 13 14 14 16 16 15
2 6 7 5 5 2 4 8 5 4 7 4 9 7 5 14 17 14 13 12 10 8 9 8 8 7 6 7 7 8 7 7 4 5 2 1 5 7 7 9 12 13 14 13 15 15 16 15 12
5 6 6 2 4 5 4 9 8 5 12 14 13 10 5 17 16 18 17 15 15 14 12 9 8 7 6 5 6 5 4 3 3 3 4 4 5 5 6 6 8 11 12 12 15 14 14 11 8
4 6 4 6 6 5 8 9 9 9 15 14 16 14 15 17 17 18 18 16 17 15 11 11 10 9 8 6 4 3 2 2 2 4 5 4 4 5 5 5 5 7 8 7 10 9 7 10 8
6 11 8 1 3 4 9 6 7 17 18 3 4 8 17 19 19 20 20 19 16 16 14 13 11 9 8 5 5 4 3 2 2 3 3 3 3 5 5 5 6 5 6 8 7 5 8 9 10
9 9 6 8 6 9 8 13 12 17 16 16 9 5 14 17 20 19 19 17 16 17 15 14 12 11 9 8 5 5 4 3 3 2 3 3 4 4 4 4 5 5 6 7 8 8 8 9 10
5 8 12 9 12 9 9 14 3 11 9 16 17 16 16 19 20 18 20 20 19 16 17 15 14 12 11 9 8 6 5 5 4 3 3 4 3 3 3 4 5 5 6 7 8 8 8 7 8
5 10 13 15 11 8 6 10 19 19 9 11 13 15 16 19 19 22 21 20 19 16 17 16 14 13 11 10 8 6 5 5 4 3 3 3 3 3 4 3 4 5 6 8 7 8 7 7 7
6 6 12 2 10 5 8 18 11 6 11 14 17 17 17 19 21 20 19 20 20 18 19 16 13 13 12 10 8 6 6 5 4 3 3 3 1 3 3 4 5 6 6 7 8 8 8 8 8
11 12 15 15 14 4 13 15 8 3 9 17 18 18 18 19 20 19 20 20 20 20 19 17 15 14 13 10 7 6 6 5 4 3 3 3 2 3 4 4 4 6 6 7 7 7 8 8 8
17 17 15 15 10 13 15 22 21 20 20 22 23 22 21 20 20 18 19 18 19 19 18 18 14 15 13 8 8 6 5 4 4 4 3 3 0 2 3 4 5 5 5 6 6 9 9 9 9
22 21 23 23 7 9 19 23 22 22 21 23 23 22 20 19 12 15 17 17 17 17 18 19 17 16 11 9 8 7 7 6 6 5 5 4 1 1 3 4 5 5 6 8 9 8 10 8 9
20 20 25 21 6 5 16 22 21 22 26 25 23 22 17 14 12 15 16 16 17 18 17 17 17 16 12 8 7 5 7 5 5 5 4 4 3 4 4 5 6 6 6 9 9 8 7 7 5
18 22 22 21 12 13 14 20 17 14 15 18 21 17 14 14 13 16 19 20 18 19 19 18 17 16 15 12 8 6 4 4 5 6 5 6 5 4 6 7 6 6 7 7 8 7 8 7 6
19 11 18 19 11 15 2 19 14 15 18 13 19 17 14 11 10 14 18 19 20 18 17 18 17 16 15 15 11 12 8 8 7 5 4 3 4 6 6 6 6 7 6 8 8 6 7 8 8
7 2 5 8 13 17 15 18 13 6 9 13 19 19 11 10 12 17 18 18 19 18 17 17 17 16 15 15 13 10 9 5 4 4 4 5 5 6 6 6 6 7 7 8 9 9 8 7 8
7 3 3 4 5 15 20 20 5 7 6 8 13 13 6 8 12 13 15 16 16 16 16 17 18 17 16 16 15 13 11 9 7 7 6 6 5 4 5 6 6 7 8 9 8 9 10 9 9
9 7 7 9 7 18 13 13 17 10 13 15 21 15 5 10 13 15 17 16 16 19 19 17 20 20 18 17 16 15 13 11 11 9 7 6 4 5 6 5 6 7 9 10 10 11 11 11 10
14 11 7 12 15 24 6 15 11 13 12 12 11 3 6 11 12 15 16 15 17 18 19 20 20 20 19 17 16 13 13 8 8 8 6 5 6 6 6 6 7 9 10 10 10 9 9 11 9
10 9 3 9 1 9 15 25 19 7 10 11 6 8 12 11 12 14 15 16 16 17 20 21 19 19 20 19 16 15 13 12 10 10 8 7 7 6 6 7 9 10 11 11 12 8 11 11 11
6 2 6 5 7 17 28 24 18 10 15 9 8 11 12 10 13 12 13 15 15 16 17 18 19 20 17 18 16 14 13 12 10 10 10 9 7 6 7 8 10 10 10 11 11 10 11 12 10
8 8 7 4 11 11 18 13 6 2 5 2 7 8 9 9 11 12 13 13 14 15 17 18 19 20 19 18 16 15 13 13 11 9 9 8 7 7 8 9 9 10 10 10 11 12 13 14 14
12 19 21 11 17 10 14 34 6 4 5 3 7 7 9 5 10 13 13 15 15 16 16 17 18 19 19 17 16 15 13 13 12 11 10 9 9 8 8 7 9 10 10 10 11 12 12 13 15
Wind_Direction
190 220 260 241 243 232 221 190 50 162 169 103 219 171 244 339 242 5 125 117 119 96 80 73 44 51 52 48 51 51 47 50 51 55 59 56 47 42 36 31 23 18 15 6 356 349 350 359 358
212 229 232 274 255 250 110 136 189 174 85 150 145 216 245 233 91 119 151 139 115 97 83 67 55 63 61 59 60 56 54 55 50 49 47 46 46 38 36 34 29 22 17 12 6 2 3 358 351
251 258 260 242 267 282 356 164 164 117 138 171 178 268 312 52 115 144 104 137 134 110 96 76 68 68 69 72 73 69 67 67 66 64 61 53 46 45 45 42 34 27 20 14 4 2 4 0 353
236 200 230 250 262 301 309 162 136 146 156 215 245 207 137 35 148 129 139 143 131 126 117 92 79 77 74 77 78 76 76 76 74 71 72 62 52 46 39 34 28 22 18 10 8 3 357 355 351
233 255 255 245 277 295 240 309 169 180 161 173 196 210 200 157 114 136 150 148 146 138 123 102 85 83 79 76 74 76 74 74 74 71 69 62 53 46 36 31 24 17 11 6 4 7 1 358 358
242 278 251 262 331 168 235 192 195 207 182 128 209 250 224 135 165 165 160 155 149 137 133 121 97 88 82 78 75 78 79 78 76 72 65 61 54 48 42 33 25 20 12 4 3 358 353 349 348
264 266 279 296 284 259 226 180 206 217 219 205 317 235 95 174 177 164 168 156 156 146 151 155 140 110 91 81 79 83 82 76 69 60 57 57 50 47 39 34 23 19 12 4 0 352 346 341 339
276 267 278 251 293 282 149 190 298 233 244 87 172 234 228 178 167 170 167 172 171 167 166 160 157 161 140 116 85 85 86 83 77 70 66 48 97 48 53 30 21 17 10 1 359 352 346 340 330
256 254 265 280 263 13 137 215 165 3 249 204 195 266 70 141 158 174 180 186 183 182 182 175 175 170 150 134 118 114 103 98 117 126 61 174 44 32 25 41 15 13 6 360 359 352 344 334 319
246 262 297 342 281 269 203 235 229 219 215 229 233 219 160 158 176 186 192 196 195 192 188 182 179 171 162 152 152 133 135 93 78 55 39 33 36 32 11 32 16 8 11 358 356 353 342 351 341
186 253 358 267 257 267 260 241 217 229 249 234 237 221 184 187 194 203 205 205 200 195 187 186 181 174 172 160 167 169 157 153 113 59 33 36 32 20 21 12 6 0 10 360 354 351 353 340 334
258 243 249 295 225 245 244 272 237 230 240 101 319 284 171 197 205 210 211 209 199 197 188 187 182 180 175 169 189 171 164 163 134 75 35 33 39 27 17 12 359 356 358 347 343 339 333 333 328
245 276 244 245 225 240 257 248 255 260 250 257 217 223 199 206 214 214 216 211 202 198 192 188 182 182 175 188 179 177 159 178 140 135 73 38 52 31 9 3 351 347 349 344 338 335 335 330 329
359 279 266 257 249 242 234 257 255 252 255 242 235 223 224 216 216 213 212 210 203 195 195 188 187 185 178 186 185 177 175 160 167 131 93 76 43 32 5 359 349 340 350 341 327 326 323 320 318
284 281 272 246 241 242 206 249 233 250 217 223 229 234 228 224 217 216 209 209 201 197 191 191 188 185 183 184 182 180 174 178 163 143 144 111 55 24 359 347 335 345 340 318 318 318 317 319 314
259 254 270 199 178 182 201 266 247 235 193 232 244 236 231 229 224 220 209 204 199 194 192 187 188 184 185 183 181 182 172 180 165 163 177 154 83 16 348 345 343 343 323 325 323 326 325 317 316
205 267 267 261 191 157 212 267 286 191 237 262 259 256 239 230 228 226 215 203 197 195 190 187 186 186 184 183 183 181 178 189 171 185 198 148 43 12 346 338 322 324 316 317 316 319 318 308 309
290 287 268 260 192 218 233 249 271 276 271 270 267 261 257 249 224 217 217 204 197 194 190 189 186 187 184 176 185 180 177 189 179 205 195 158 115 351 328 322 318 310 304 303 304 304 307 305 306
274 284 276 272 272 220 245 260 269 274 277 272 274 272 263 251 222 211 205 197 194 191 191 192 188 189 181 185 186 190 194 190 190 200 176 192 183 305 303 296 288 286 285 291 296 301 310 313 321
264 265 267 273 289 214 271 270 268 267 268 274 274 270 272 262 185 205 193 189 194 190 194 192 193 190 190 188 190 200 191 192 203 184 185 184 202 234 253 266 275 278 292 290 291 300 304 308 315
246 250 260 272 297 228 273 272 257 246 257 261 268 263 264 251 209 196 191 192 191 197 193 194 193 191 190 192 176 174 165 204 198 201 197 191 207 226 243 254 273 292 288 285 294 294 299 296 306
261 262 252 268 279 273 83 287 279 285 263 245 268 270 260 213 197 192 189 191 195 197 192 195 195 194 191 184 185 193 201 202 199 181 169 199 228 243 250 257 267 272 277 277 281 286 289 292 291
240 347 250 257 257 279 259 269 276 170 262 232 248 266 268 178 194 189 185 190 195 193 192 193 193 196 189 188 192 191 204 201 185 186 213 235 240 241 249 258 271 278 279 277 281 282 279 279 276
122 217 217 227 267 255 258 244 280 214 212 235 251 242 267 184 182 191 184 186 192 187 191 192 192 194 192 194 198 198 197 191 189 199 212 221 229 245 251 259 262 272 275 277 288 289 284 277 275
206 213 270 251 221 263 280 259 255 272 245 253 263 268 182 172 179 180 183 186 187 189 189 194 193 195 193 195 193 196 197 196 201 205 213 224 243 252 252 261 277 284 291 296 294 285 277 274 271
198 215 220 266 265 282 111 260 262 233 231 246 252 222 196 189 186 187 187 189 191 188 191 198 199 195 190 191 196 195 195 196 199 204 207 219 234 250 269 283 287 280 284 284 281 278 280 283 280
162 201 262 276 210 279 263 266 260 161 202 230 226 224 226 205 195 196 193 194 193 190 195 198 202 200 192 190 191 192 191 192 192 193 199 214 229 242 258 268 276 280 281 284 286 284 287 288 287
241 79 186 199 257 258 278 277 277 238 228 210 232 237 250 215 212 212 203 197 196 193 197 199 201 200 194 191 191 189 185 187 190 186 199 209 221 236 253 262 265 272 278 283 284 283 280 281 277
185 222 220 301 239 252 271 265 54 8 150 269 223 243 242 216 210 212 206 199 200 197 196 198 198 197 194 191 187 184 182 181 186 190 197 207 216 228 242 254 270 274 277 279 279 276 280 281 283
257 231 218 216 227 235 254 272 147 137 107 187 236 216 264 247 224 220 201 198 199 200 197 199 196 198 195 188 185 181 175 174 185 192 192 196 213 225 243 255 263 268 270 274 277 284 286 285 283